Other Public Products
Issued by NWS Grand Forks, ND

Home | Current Version | Previous Version | Graphics & Text | Print | Product List | Glossary On
Versions: 1 2 3 4 5 6 7 8 9 10 11 12 13 14 15 16 17 18 19 20 21 22 23 24 25 26 27 28 29 30 31 32 33 34 35 36 37 38 39 40 41 42 43 44 45 46 47 48 49 50
000
FPUS83 KFGF 060931
OPUFGF
PRAIRIE TO PINES WEATHER ROUNDUP
NATIONAL WEATHER SERVICE EASTERN NORTH DAKOTA/GRAND FORKS ND
400 AM CDT MON JUL 06 2015

 **SATELLITE DATA USED TO AUGMENT SKY COVER AT AUTOMATED STATIONS**
 *****  WEATHER ACROSS EASTERN NORTH DAKOTA  *****

CITY           SKY/WX    TMP DP  RH WIND       PRES   REMARKS
GRAND FORKS    CLOUDY    60  55  83 N14       29.98R HAZE
GRAND FORKS AF MOCLDY    59  55  88 N10       30.00R
GRAND CITY NWS   N/A     57 N/A N/A VRB2        N/A
BUXTON         NOT AVBL
DEVILS LAKE    CLOUDY    57  52  82 N9        30.02R
FARGO          CLOUDY    65  60  84 N13       29.91S HAZE
WAHPETON ARPT  CLOUDY    64  61  88 N12       29.89R
$$

 *****  WEATHER ACROSS CENTRAL AND WESTERN NORTH DAKOTA  *****

CITY           SKY/WX    TMP DP  RH WIND       PRES   REMARKS
JAMESTOWN      CLOUDY    63  56  78 N13       29.98R HAZE
BISMARCK       MOCLDY    62  54  74 N8        30.05R
MINOT          PTCLDY    55  51  86 NW9       30.07R FOG
MINOT AFB      PTCLDY    56  55  99 NW8       30.07R
GARRISON         N/A     56  54  93 N6        30.06R
WILLISTON      MOCLDY    60  50  69 N6        30.12R
DICKINSON      CLOUDY    58  51  78 NW5       30.09R
HETTINGER      CLOUDY    58  51  78 NW9       30.12R
$$

 *****  OTHER OBSERVATIONS NORTHEAST NORTH DAKOTA  *****

CITY           SKY/WX    TMP DP  RH WIND       PRES   REMARKS
WALHALLA       FAIR      55  55 100 MISG      30.05R
LANGDON        PTSUNNY   55  52  88 NE8       30.05R
CAVALIER       PTSUNNY   55  50  82 NE6       30.04R
GRAFTON        CLOUDY    57  52  82 N10       30.02R
CANDO          CLOUDY    54  50  87 N6        30.06R
FORT TOTTEN      N/A     59  55  86 NE5       29.95S
ROLLA          CLOUDY    50  50 100 N9        30.08R
RUGBY          NOT AVBL
 ***** THE ABOVE OBSERVATIONS ARE NON NWS ARE NOT QUALITY
        CONTROLLED AND MAY MIS-REPORT RAIN FOR SNOW...
$$

 *****  OTHER OBSERVATIONS SOUTHEAST NORTH DAKOTA *****

CITY           SKY/WX    TMP DP  RH WIND       PRES   REMARKS
COOPERSTOWN    NOT AVBL
VALLEY CITY    PTSUNNY   63  59  88 N15G21    29.97R FOG
OAKES            N/A     64  64 100 N9        29.97R FOG
GWINNER        FAIR      66  61  82 N10       29.95R
SHEYENNE NWR     N/A     66  58  74 N9        29.95S
BUFFALO        NOT AVBL
WYNDMERE         N/A     66  61  82 N9          N/A
 ***** THE ABOVE OBSERVATIONS ARE NON NWS ARE NOT QUALITY
       CONTROLLED AND MAY MIS-REPORT RAIN FOR SNOW...
$$

  *****  WEATHER ACROSS NORTHERN MINNESOTA  *****

CITY           SKY/WX    TMP DP  RH WIND       PRES   REMARKS
FLAG ISLAND    CLOUDY    57  48  72 N16       29.96R
WARROAD        PTCLDY    55  52  88 NW8       29.98R
ROSEAU         PTCLDY    55  50  82 N8        29.98S
HALLOCK        PTCLDY    55  52  88 N8        30.01R
THF RVR FALLS  CLOUDY    61  55  82 N10       29.96S
HALSTAD        NOT AVBL
FOSSTON          N/A     59  57  94 N10       29.93F FOG
BAUDETTE       CLOUDY    61  55  81 NW14      29.93R HAZE
WASKISH          N/A     61  59  94 NW8G16    29.91F FOG
CROOKSTON      MOCLDY    61  55  82 N12G21    29.96S FOG
$$
  *****  WEATHER ACROSS CENTRAL AND WEST MINNESOTA  *****

CITY           SKY/WX    TMP DP  RH WIND       PRES   REMARKS
BEMIDJI        CLOUDY    61  60  97 NW3       29.90S FOG
PARK RAPIDS    CLOUDY    66  61  84 N13       29.87F HAZE
WADENA         CLOUDY    64  63  94 N7        29.86R
DETROIT LAKES  CLOUDY    64  61  88 N3        29.90S HAZE
MOORHEAD       CLOUDY    64  61  88 N12       29.92R FOG
FERGUS FALLS   LGT RAIN  68  61  77 NE10      29.86S
ELBOW LAKE     PTSUNNY   68  64  85 NE12G18   29.85S
MORRIS MN      LGT RAIN  68  66  94 NW5       29.85R
STAPLES        CLOUDY    64  61  88 N6        29.86R
WHEATON        CLOUDY    64  63  94 NW5       29.91R FOG
$$
  *****  WEATHER ELSEWHERE ACROSS MINNESOTA  *****

CITY           SKY/WX    TMP DP  RH WIND       PRES   REMARKS
DULUTH         CLOUDY    67  64  90 N6        29.82R
INTRNTL FALLS  CLOUDY    58  57  97 NW6       29.88F FOG
ELY            PTCLDY    61  57  88 CALM      29.85S
CLOQUET        CLOUDY    64  63  94 N5        29.82S
BRAINERD       CLOUDY    66  63  90 N13       29.82F
HIBBING        CLOUDY    62  58  86 N6        29.84F
ALEXANDRIA     CLOUDY    67  65  93 NE10      29.86R
SAINT CLOUD    CLOUDY    69  68  96 CALM      29.80R
MINNEAPOLIS    TSTM      71  70  96 N14       29.78F FOG
$$

  *****  WEATHER ACROSS SOUTH DAKOTA  *****

CITY           SKY/WX    TMP DP  RH WIND       PRES   REMARKS
SIOUX FALLS    LGT RAIN  69  69 100 N14       29.81F
BROOKINGS      CLOUDY    68  64  88 NW9       29.90R
WATERTOWN      LGT RAIN  66  63  90 N9        29.91R
HURON          LGT RAIN  67  66  97 N10       29.89S
SISSETON         N/A     67  64  90 N7        29.90R
ABERDEEN       LGT RAIN  66  61  84 NE13      29.96S
MITCHELL       CLOUDY    69  67  93 N18G28    29.80F
PIERRE         CLOUDY    64  62  93 N13       29.97S FOG
MOBRIDGE       CLOUDY    66  64  93 N8        30.00R FOG
RAPID CITY     LGT RAIN  60  56  86 N12       30.13R FOG
$$

  *****  SOME WEATHER IN NEARBY STATES *****

CITY           SKY/WX    TMP DP  RH WIND       PRES   REMARKS
GLASGOW MT     CLOUDY    57  53  86 W6        30.18R
GREAT FALLS MT PTCLDY    47  46  97 SW6       30.26S
CHEYENNE WY    CLOUDY    57  56  96 NE10      30.19S FOG
SCOTTSBLUFF NE CLOUDY    62  59  90 N9        30.12R
OMAHA NE       CLOUDY    80  73  79 SW8       29.81R
DES MOINES IA  CLOUDY    77  71  82 S12       29.81F
DAVENPORT IA   MOCLDY    71  66  84 S13       29.94F
CHICAGO IL     PTCLDY    66  62  87 W3        30.01F
EAU CLAIRE WI  RAIN      69  66  90 NE8       29.84F FOG
LA CROSSE WI   CLOUDY    74  67  78 S15G21    29.84S
$$

  *****  SOME NATIONAL WEATHER *****

CITY           SKY/WX    TMP DP  RH WIND       PRES   REMARKS
LA GUARDIA NY  MOCLDY    73  65  75 CALM      30.14R
RALEIGH NC     MOCLDY    71  69  93 SE5       30.09F
ATLANTA GA     CLOUDY    71  68  90 SW7       30.12R
NEW ORLEANS LA MOCLDY    75  70  84 CALM      30.09R
OKLAHOMA CITY  MOCLDY    75  71  87 S9        29.93S
ALBUQUERQUE NM CLOUDY    68  61  78 E6        30.15F
SALT LAKE CITY CLEAR     70  63  78 CALM      30.05R
LOS ANGELES CA CLOUDY    64  59  83 SW5       30.03R
BOISE ID       CLOUDY    71  55  56 SE7       29.99S
SEATTLE WA     CLEAR     64  53  67 S7        29.95R
$$

*** WEATHER ACROSS MANITOBA...SASKATCHEWAN AND ONTARIO ***
                ***ONTARIO***

CITY           SKY/WX    TMP DP  RH WIND       PRES   REMARKS
GERALDTON      CLOUDY    63  61  94 NW5       29.75F FOG
THUNDER BAY    MOCLDY    61  61 100 W6        29.79R
SIOUX LOOKOUT  CLOUDY    55  54  94 NW6       29.86R FOG
TORONTO        PTCLDY    64  59  82 NE3       30.08F
BIG TROUT LK   CLOUDY    45  41  87 NW13G25   29.71
PICKLE LAKE    NOT AVBL
DRYDEN         CLOUDY    54  52  94 W8        29.90R FOG
KENORA         MOCLDY    52  46  82 NW9       29.95R
$$
                *** MANITOBA***

CITY           SKY/WX    TMP DP  RH WIND       PRES   REMARKS
BRANDON        CLOUDY    50  48  93 NW7       30.08R
DAUPHIN        CLOUDY    52  46  82 N5        30.07R
ISLAND LAKE    CLOUDY    46  45  93 NW12G20   29.89R
PILOT MOUND      N/A     50  48  93 N7          N/A
THE PAS        PTCLDY    41  37  87 S2        30.10S
THOMPSON       PTCLDY    41  37  87 NW7       29.99S
WINNIPEG       CLEAR     46  45  93 NW3       30.04R
LYNN LAKE      CLEAR     39  37  93 W8        30.04S
CHURCHILL      MOCLDY    43  39  87 N18G25    29.85S
$$
                ***SASKATCHEWAN***

CITY           SKY/WX    TMP DP  RH WIND       PRES   REMARKS
ESTEVAN        CLOUDY    54  52  94 N7        30.11R
KINDERSLEY     PTCLDY    46  46 100 N5        30.19R
LLOYDMINSTER   CLOUDY    46  43  87 W8        30.17R
PRINCE ALBERT  CLOUDY    43  41  93 W6        30.14R
REGINA         MOCLDY    50  48  93 NW7       30.16R
YORKTON        CLEAR     45  43  93 W6        30.13R


USA.gov is the U.S. government's official web portal to all federal, state and local government web resources and services.